{"data":{"norad_id":69225,"intl_designator":"2026-115Q","name":"STARLINK-37770","alt_names":[],"object_type":"PAYLOAD","status":"ACTIVE","operator":null,"country":"US","launch_date":"2026-05-26","launch_site_code":"AFWTR","launch_vehicle":null,"mission":null,"orbit_class":"UNKNOWN","rcs_meters":null,"size_class":null,"mass_kg":null,"dimensions":null,"purposes":["comms"],"wikipedia_slug":null,"has_3d_model":false,"image_url":null,"decayed_at":null,"tle_current":{"epoch":"2026-09-19T11:15:46.565280Z","epoch_age_seconds":116079,"freshness":"FRESH","line1":"1 69225U 26115Q   26262.46928895  .00012830  00000+0  39893-3 0  9996","line2":"2 69225  97.2816 278.5948 0001396 110.3313 249.8080 15.33454283 19136","mean_motion":15.33454283,"eccentricity":0.0001396,"inclination_deg":97.2816,"raan_deg":278.5948,"arg_perigee_deg":110.3313,"mean_anomaly_deg":249.808,"bstar":0.00039893,"rev_number":1913,"period_min":93.905636181265,"perigee_km":464.56018104394,"apogee_km":466.47092883728,"semimajor_km":6843.6525549406,"source":"CELESTRAK","updated_at":"2026-09-20T09:00:44.104675Z"}}}